Location: Newark
(48.8656°N, 2.3211°E)
Time: 03:25:14
(UTC+00:00)

Envisat - Pass Details

Date: 13 December 2019
Orbit: 764 x 766 km, 98.1° (Epoch: 23 January)

Event Time Altitude Azimuth Distance (km) Brightness Sun altitude
Rises 06:06:48 0° 20° (NNE) 3,246 6.3 -13.7°
Reaches altitude 10° 06:09:17 10° 28° (NNE) 2,314 5.6 -13.4°
Maximum altitude 06:14:02 39° 97° (E) 1,146 4.6 -12.6°
Drops below altitude 10° 06:18:45 10° 165° (SSE) 2,297 6.0 -11.9°
Sets 06:21:12 0° 173° (S) 3,218 6.6 -11.5°
